Regional Weather Roundup
Issued by NWS Green Bay, WI

Home | Current Version | Previous Version | Graphics & Text | Print | Product List | Glossary Off
Versions: 1 2 3 4 5 6 7 8 9 10 11 12 13 14 15 16 17 18 19 20 21 22 23 24 25 26 27 28 29 30 31 32 33 34 35 36 37 38 39 40 41 42 43 44 45 46 47 48 49 50

000
ASUS43 KGRB 212211
RWRGRB

NORTH-CENTRAL AND NORTHEAST WISCONSIN REGIONAL WEATHER ROUNDUP
NATIONAL WEATHER SERVICE GREEN BAY WI
500 PM CDT SAT OCT 21 2017

WIZ005-009-010>012-018-019-212300-
NORTH CENTRAL WISCONSIN

CITY           SKY/WX    TMP DP  RH WIND       PRES   REMARKS
IRONWOOD       NOT AVBL
MANITOWISH WTR CLOUDY    66  58  77 S17G28    29.79S
ARBOR VITAE    PTCLDY    67  58  72 S20G29    29.81S
EAGLE RIVER    NOT AVBL
LAND O LAKES   MOCLDY    69  55  62 S9        29.82F
RHINELANDER    CLOUDY    67  57  70 S10       29.85R
PHILLIPS       CLOUDY    65  58  77 S17G31    29.78S
ANTIGO         CLOUDY    69  56  62 S12G23    29.87R
TOMAHAWK       CLOUDY    65  56  71 CALM      29.84S
MERRILL        CLOUDY    68  57  68 SW6       29.85S
$$

WIZ013-073-212300-
NORTHEAST WISCONSIN

CITY           SKY/WX    TMP DP  RH WIND       PRES   REMARKS
IRON MOUNTAIN  CLEAR     70  52  52 S13       29.85R
MARINETTE      CLEAR     64  55  72 S14       29.91
OCONTO         CLEAR     65  55  68 S10       29.90R
$$

WIZ017-030-035>037-045-212300-
CENTRAL WISCONSIN

CITY           SKY/WX    TMP DP  RH WIND       PRES   REMARKS
MEDFORD        RAIN      63  56  78 S8        29.83S
WAUSAU         CLOUDY    71  56  58 S10       29.83S
MOSINEE        MOCLDY    70  57  64 S6G13     29.86R
MARSHFIELD     CLOUDY    69  57  65 SE6       29.82F
WISC RAPIDS    CLOUDY    74  59  59 S10       29.85S
STEVENS POINT  CLOUDY    71  57  61 S8        29.86R
WAUPACA        MOCLDY    76  58  54 S9G17     29.87S
SHAWANO        CLOUDY    74  56  53 S7        29.87F
CLINTONVILLE   MOCLDY    73  55  53 S10       29.87S
WAUTOMA        MOCLDY   N/A N/A N/A S7        29.87
$$

WIZ038-039-048-051-212300-
FOX VALLEY

CITY           SKY/WX    TMP DP  RH WIND       PRES   REMARKS
NWS GREEN BAY  CLEAR     70  57  63 SE10      29.90R
APPLETON       PTCLDY    73  54  49 S13       29.88F
OSHKOSH        CLEAR     74  58  57 S18       29.88S
FOND DU LAC    CLEAR     76  55  48 S9G23     29.89S
$$

WIZ022-050-052-212300-
EAST CENTRAL WISCONSIN

CITY           SKY/WX    TMP DP  RH WIND       PRES   REMARKS
EPHRAIM        FAIR      60  53  77 S15G28    29.91F
WASHINGTON ISL NOT AVBL
STURGEON BAY   CLEAR     62  54  74 S21G28    29.92R
MANITOWOC      CLEAR     61  54  77 S17G28    29.94S
SHEBOYGAN      CLEAR     66  56  70 S14       29.93F
$$

LMZ563-521-522-541>543-212300-
LAKESHORE

STATION/POSITION TIME  TEMP    WIND        PRES    VSBY  WAVE
                       AIR SEA DIR/SP/G                  HT/PER
                 (UTC) (F)     (DEG/KT/KT) (MB)    (MI)  (FT/S)
SHEBOYGAN LKSHOR 2200   57     180/ 19/ 20 1013.5F
KEWAUNEE LKSHORE 2148   52     180/  9/ 10 1013.2S
NORTHPORT PIER   2132   60     160/ 12/ 25 1013.5S
N MID LAKE BUOY  2150   63 58  190/ 23/ 27 1014.0F         6/ 7
S GREEN BAY BUOY 2130   65 58  160/ 14/ 17 1012.0F
SISTER BAY LKSHO 2204   61     180/ 21/ 28   N/A
MENOMINEE LKSHOR 2148   62     160/ 14/ 18 1012.3R
$$



USA.gov is the U.S. government's official web portal to all federal, state and local government web resources and services.